ICEYE-X43 (60539 NORAD) Tracking and Keplerian Element Data

This shows tracking and keplerian element data for the satellite.

Feedback or suggestion? Click here.




ElementValue
Catalog60539
NameICEYE-X43
Epoch Orbit848
Epoch Day286.75007472
Epoch Year2024
RAAN1.2788
Inclination97.7381
Eccentricity0.0002767
Argument of Perigee324.8591
Mean Anonmoly35.2446
Mean Motion14.93067017
Decay Rate8.379E-05
L11 60539U 24149BZ 24286.75007472 .00008379 00000+0 80953-3 0 9991
L22 60539 97.7381 1.2788 0002767 324.8591 35.2446 14.93067017 8482



Live tracking and technical data element details for ICEYE-X43 (NORAD 60539). ICEYE-X43 can be tracked NOW for your location showing map with azimuth and elevation plus other details from your city location.







IsCatalogInMostPopularTable: catalog: 60539, numindb: 8
Update: records affected: 1



GetName: 60539 ICEYE-X43

Hit Count: updated at: Fri, 06 Dec 2024 12:02:58 GMT